Location: *
(49.5364°N, 3.8306°E)
Time: 15:49:05
(UTC+00:00)

Daily predictions for brighter satellites

Satellite Brightness Start Highest point End
(mag) Time Altitude Azimuth Time Altitude Azimuth Time Altitude Azimuth
NOSS 3-4 (A) 4.1 17:58:00 10° NW 18:04:57 81° SW 18:12:36 10° SE
NOSS 3-4 (C) 4.0 17:58:06 10° NW 18:05:03 82° SW 18:12:41 10° SE
SJ-6B 4.4 18:07:14 10° ESE 18:10:05 19° ENE 18:12:55 10° NNE
Nadezhda 1 Rocket 4.0 18:05:26 10° S 18:11:23 61° E 18:17:25 10° NNE
Cosmos 2327 Rocket 4.5 18:06:57 10° N 18:13:13 83° E 18:19:21 10° S
Okean 1-7 Rocket 4.3 18:09:26 10° N 18:13:29 33° ENE 18:17:32 10° SE
H-2A R/B 3.4 18:10:35 10° ESE 18:14:11 20° ENE 18:17:50 10° NNE
CZ-4 R/B 2.1 18:11:03 10° S 18:14:54 57° W 18:18:53 10° NNW
SL-8 R/B 3.8 18:11:43 10° W 18:16:31 79° S 18:21:20 10° E
In-Cosmos 22 4.5 18:12:51 10° N 18:18:00 44° ENE 18:23:14 10° SE
GENESIS II 4.3 18:16:38 10° NW 18:20:46 73° NE 18:24:49 10° SE
Ariane Rocket 3.0 18:17:10 10° SSE 18:22:11 66° ENE 18:27:14 10° N
HJ-1C 3.8 18:20:01 10° SE 18:23:14 43° ENE 18:26:28 10° N
Cosmos 405 Rocket 3.6 18:21:13 10° SSE 18:24:20 26° E 18:27:30 10° NE
USA 234 3.5 18:21:07 10° ENE 18:27:41 74° NNW 18:34:13 10° WSW
Cosmos 1455 Rocket 4.1 18:24:16 10° SE 18:27:53 25° E 18:31:31 10° NNE
ASTEX 1 3.9 18:23:40 10° NNE 18:28:15 38° E 18:32:48 10° SSE
Cosmos 389 Rocket 2.5 18:24:57 10° N 18:28:21 55° ENE 18:31:43 10° SSE
CSL-04 Rocket 4.4 18:23:12 10° S 18:28:39 62° WSW 18:34:12 10° NNW
Lacrosse 5 rocket 1.8 18:25:28 10° SSW 18:28:43 32° SE 18:32:06 10° ENE
Cosmos 1674 4.1 18:26:03 10° NNE 18:28:50 19° ENE 18:31:14 12° ESE
DMSP B5D1-3 4.5 18:24:25 10° NNE 18:29:31 65° ESE 18:34:34 10° S
Cosmos 407 Rocket 3.4 18:25:43 10° NNW 18:30:52 84° ENE 18:36:00 10° SSE
MOS 1 4.4 18:27:47 10° SE 18:33:21 57° ENE 18:38:55 10° N
Cosmos 2237 Rocket 2.3 18:28:44 10° NNW 18:34:29 86° WSW 18:40:12 10° SSE
Cosmos 1441 Rocket 3.6 18:32:20 10° SSW 18:36:05 68° WNW 18:39:51 10° N
USA 186 2.8 18:33:26 10° SE 18:36:27 30° ENE 18:39:29 10° N
Cosmos 1437 Rocket 3.7 18:33:41 10° N 18:36:58 27° ENE 18:39:44 13° SE
Cosmos 2333 Rocket 3.9 18:32:06 10° NW 18:37:16 36° WSW 18:42:26 10° S
ISS -3.3 18:34:48 10° SW 18:37:58 44° SSE 18:40:32 15° E
Cosmos 2056 Rocket 3.8 18:32:57 10° S 18:38:09 50° ESE 18:43:22 10° NNE
Cosmos 1939 Rocket 2.8 18:35:36 10° SSE 18:39:27 87° WSW 18:43:21 10° NNW
ERBS 2.2 18:37:03 10° NW 18:40:28 79° NE 18:43:05 16° ESE
USA 116 4.3 18:37:20 10° N 18:41:08 55° WNW 18:44:30 10° SSW
Cosmos 1140 Rocket 3.4 18:38:55 10° NNW 18:44:07 75° ENE 18:49:15 10° SSE
Cosmos 1980 4.0 18:39:16 10° NNW 18:44:53 69° WSW 18:50:29 10° SSE
Meteor 1-15 Rocket 4.3 18:39:30 10° S 18:45:11 60° E 18:51:00 10° NNE
SAR-Lupe-2 4.0 18:41:59 10° NNE 18:45:22 37° E 18:48:41 10° SSE
ATLAS 2AS CENTAUR R/B 4.3 18:40:58 10° NW 18:47:50 37° WSW 18:54:10 10° S
Meteor 2-17 Rocket 4.4 18:42:10 10° N 18:48:14 64° ENE 18:54:13 10° SSE
Meteor 1-24 Rocket 4.3 18:43:24 10° N 18:48:54 41° ENE 18:54:23 11° SE
Cosmos 1544 4.2 18:45:35 10° SSW 18:49:03 47° WNW 18:52:35 10° N
Cosmos 1624 Rocket 4.0 18:44:04 10° S 18:49:10 61° ESE 18:54:19 10° NNE
Okean 1 Rocket 3.8 18:49:47 10° SSW 18:54:04 56° WNW 18:58:24 10° N
Cosmos 1954 Rocket 4.0 18:49:31 10° NNW 18:54:45 70° ENE 18:59:55 10° SSE
Cosmos 1805 4.1 18:54:23 10° SSE 18:57:46 29° E 19:01:11 10° NNE
EO 1 Delta rocket 4.2 18:55:37 10° SSE 19:01:48 82° E 19:06:50 10° N
Cosmos 1707 4.1 19:01:02 10° NNW 19:04:45 42° W 19:08:27 10° SSW
Cosmos 1602 Rocket 4.3 19:03:20 10° N 19:07:16 32° ENE 19:08:45 25° ESE
Cosmos 2181 Rocket 4.0 19:01:13 10° S 19:07:24 66° E 19:13:44 10° NNE
KORONAS-FOTON 4.1 19:03:51 10° N 19:07:29 42° ENE 19:09:08 26° SE
Cosmos 2341 Rocket 4.1 19:01:14 10° N 19:07:30 81° W 19:13:42 10° S
Cosmos 1626 4.0 19:05:34 10° NNE 19:07:34 16° ENE 19:07:34 16° ENE
SL-16 R/B 2.2 19:02:35 10° NNW 19:08:17 73° ENE 19:12:43 17° SE
GEOS 3 Rocket 3.6 19:05:53 16° SE 19:10:04 85° SW 19:15:14 10° NW
Lacrosse 5 3.6 19:06:53 10° SSE 19:08:27 15° SSE 19:08:27 15° SSE
Resurs 1-3 4.2 19:08:41 25° ESE 19:10:35 37° ENE 19:14:38 10° N
Meteor 1-4 Rocket 3.1 19:10:18 10° NNW 19:13:46 55° W 19:17:10 10° S
Cosmos 864 Rocket 4.5 19:09:50 10° N 19:16:05 68° ENE 19:22:20 10° SSE
Cosmos 2366 rocket 4.0 19:10:48 10° N 19:17:11 72° ENE 19:23:31 10° SSE
Cosmos 2218 Rocket 4.0 19:13:06 10° N 19:19:31 79° E 19:25:49 10° SSE
Cosmos 1371 Rocket 4.4 19:16:25 10° SSW 19:21:43 67° WNW 19:27:06 10° NNE
Cosmos 1733 4.2 19:23:18 28° ENE 19:23:18 28° ENE 19:25:52 10° NNE
Transit 2A Rocket 4.4 19:19:21 10° NNW 19:23:48 71° NE 19:25:33 35° SE
SPOT 3 Rocket 3.5 19:19:19 10° SSE 19:24:23 89° ENE 19:29:35 10° NNW
ARGOS 3.1 19:20:36 19° SSE 19:24:32 66° ENE 19:29:54 10° N
Cosmos 2082 3.7 19:19:05 10° SSW 19:24:42 61° ESE 19:30:21 10° NE
SL-8 Rocket 4.0 19:18:38 10° N 19:24:51 83° W 19:31:00 10° S
RESURS DK-1 2.6 19:21:08 10° NNW 19:25:12 52° NE 19:26:21 39° ESE
Cosmos 1892 Rocket 4.4 19:21:08 10° NNW 19:25:29 53° W 19:29:45 10° S
FREGAT/IRIS 4.0 19:23:47 10° SSW 19:26:24 35° W 19:29:03 10° NNW
Resurs 01 Rocket 2.1 19:26:29 35° ESE 19:27:38 42° ENE 19:31:51 10° N
Meteor 2-5 Rocket 3.9 19:21:48 10° NNW 19:27:41 82° W 19:33:37 10° S
Cosmos 676 Rocket 4.5 19:24:55 10° NNW 19:30:05 59° WSW 19:35:02 11° S
Cosmos 1452 Rocket 3.5 19:27:06 10° S 19:32:11 53° ESE 19:37:18 10° NNE
Meteor 1-22 Rocket 4.4 19:27:01 10° S 19:33:01 63° E 19:39:02 10° NNE
CZ-2C R/B 3.4 19:30:52 30° SE 19:33:17 53° ENE 19:38:47 10° N
MetOp-A 4.2 19:34:27 32° SE 19:36:46 57° ENE 19:42:01 10° N
CZ-2C R/B 3.7 19:33:35 10° NNE 19:38:03 77° WNW 19:42:28 10° SSW
Cosmos 2227 Rocket 2.4 19:32:57 10° SW 19:38:37 75° WNW 19:44:19 10° NNE
Cosmos 2084 Rocket 3.9 19:34:32 10° SW 19:38:59 65° NW 19:43:26 10° NE
SL-14 R/B 3.7 19:37:12 10° N 19:40:46 43° ENE 19:40:46 43° ENE
SJ-6B 3.6 19:41:09 15° S 19:44:24 53° W 19:48:22 10° NNW
Cosmos 2219 4.4 19:40:42 10° SW 19:46:11 44° NW 19:51:42 10° NNE
Cosmos 1766 3.3 19:43:32 10° SSW 19:47:28 77° WNW 19:51:24 10° N
Cosmos 2297 Rocket 2.7 19:43:03 10° SW 19:48:39 62° WNW 19:54:18 10° NNE
ADEOS Rocket 3.5 19:41:51 10° NNE 19:49:19 72° ESE 19:57:06 10° S
CZ-4C R/B 4.1 19:47:07 10° NW 19:52:37 28° NNE 19:56:54 17° ENE
H-2A R/B 2.2 19:49:53 22° S 19:53:05 70° WSW 19:58:11 10° NNW
SL-8 R/B 3.8 19:54:14 10° W 19:58:58 61° SSW 19:59:31 56° SSE
SL-08 RB Rocket 3.7 19:58:55 45° S 20:00:22 82° WSW 20:05:05 10° NNW
Cosmos 1850 Rocket 4.0 19:58:04 10° NNW 20:03:16 76° WSW 20:04:53 44° S
Cosmos 1674 4.1 20:01:04 10° NNW 20:04:30 36° W 20:06:06 24° SW
Cosmos 1455 Rocket 4.5 20:01:21 10° SW 20:05:31 39° WNW 20:09:44 10° N
Cosmos 1943 3.4 20:01:35 10° NNW 20:07:09 51° NE 20:07:51 48° ENE
USA 186 4.4 20:04:58 11° SW 20:07:25 21° W 20:10:05 10° NW
Lacrosse 5 rocket 1.8 20:04:07 10° WSW 20:07:44 51° NNW 20:08:06 49° N
USA 234 4.0 20:05:27 17° ENE 20:10:17 48° N 20:16:31 10° WNW
BREEZE M DEB (TANK) 2.5 20:10:01 10° W 20:12:29 73° WSW 20:12:29 73° WSW
SPOT 5 4.3 20:14:48 26° NE 20:14:48 26° NE 20:18:12 10° N
ISS -2.2 20:11:21 10° W 20:13:25 34° W 20:13:25 34° W
Cosmos 1934 Rocket 4.0 20:13:49 10° N 20:19:52 56° ENE 20:20:15 55° E
ERS-1 Rocket 3.9 20:20:57 35° NE 20:20:57 35° NE 20:24:44 10° N
Terra 3.6 20:25:43 20° NE 20:25:43 20° NE 20:28:02 10° N
Cosmos 1825 Rocket 4.2 20:25:48 10° N 20:29:02 49° N 20:29:02 49° N
Meteor 1-21 Rocket 4.2 20:29:12 10° NNW 20:35:10 87° ENE 20:35:38 77° SSE
USA 245 4.2 20:36:02 74° ENE 20:36:02 74° ENE 20:41:21 10° N
Spot 2 Rocket 3.5 20:37:40 77° W 20:37:40 77° W 20:42:39 10° NNW
Cosmos 1758 Rocket 4.4 20:37:29 10° NNW 20:40:44 48° NNW 20:40:44 48° NNW
Cosmos 1626 4.0 20:39:57 10° NNW 20:42:09 30° NW 20:42:09 30° NW
CZ-2C R/B 3.3 20:39:37 10° NNE 20:43:38 46° NE 20:43:38 46° NE
Cosmos 1241 Rocket 4.5 20:40:04 10° NW 20:46:22 64° NE 20:46:25 64° NE
Cosmos 1603 3.8 20:42:30 10° NNW 20:48:09 68° WSW 20:48:13 67° WSW
MetOp-B 4.3 20:51:26 66° W 20:51:26 66° W 20:56:45 10° NNW
SL-16 R/B 4.2 20:47:40 10° NW 20:51:49 21° W 20:54:38 15° SW
Lacrosse 5 4.3 20:47:22 10° SW 20:47:45 12° SW 20:47:45 12° SW
SPOT 1/Viking Rocket 4.1 20:54:02 51° N 20:54:02 51° N 20:57:58 10° N
Nadezhda 3 Rocket 4.3 20:55:43 40° SW 20:57:53 61° WNW 21:04:05 10° N
Cosmos 2285 Rocket 4.3 20:57:30 10° NNW 21:03:17 58° NE 21:03:17 58° NE
Resurs 01 Rocket 3.5 21:04:04 24° W 21:04:17 25° W 21:07:58 10° NW
Cosmos 1605 Rocket 4.1 21:01:03 10° N 21:06:49 72° NNE 21:06:49 72° NNE
Cosmos 2263 Rocket 3.9 21:43:23 25° NNE 21:43:23 25° NNE 21:45:43 10° NNE
CZ-4C R/B 3.2 21:35:46 10° NW 21:42:04 57° NNE 21:42:04 57° NNE
USA 234 3.8 21:52:48 53° N 21:52:48 53° N 21:59:02 10° WNW
Terra 4.0 22:04:36 22° NNW 22:04:36 22° NNW 22:06:24 10° NNW
Cosmos 2082 Rocket 4.2 23:01:11 10° NNW 23:03:40 24° N 23:03:40 24° N
Cosmos 2263 Rocket 4.5 23:25:03 19° NW 23:25:03 19° NW 23:28:57 10° N
CZ-4C R/B 4.4 23:24:22 10° NW 23:27:14 26° WNW 23:27:14 26° WNW
Cosmos 2278 Rocket 4.4 23:54:10 20° NNE 23:54:10 20° NNE 23:55:51 10° NNE
